GLOBALSTAR M001 1 25162U 98008A 25355.64166045 -.00000091 00000+0 45098-4 0 9993 2 25162 52.0009 147.6154 0000360 325.6733 132.5307 12.38224105266935 GLOBALSTAR M004 1 25163U 98008B 25355.03843692 -.00000086 00000+0 10209-3 0 9996 2 25163 51.9977 204.1081 0003259 5.5650 150.1705 12.63411138285300 GLOBALSTAR M002 1 25164U 98008C 25355.59790746 -.00000098 00000+0 -41618-3 0 9991 2 25164 51.9997 130.2999 0002528 120.3878 239.7192 11.61514552205842 GLOBALSTAR M003 1 25165U 98008D 25355.30671138 -.00000204 00000+0 -12267-2 0 9990 2 25165 51.9924 10.2553 0007855 310.9891 61.8381 12.12040926255919 GLOBALSTAR M014 1 25306U 98023A 25355.53831933 -.00000085 00000+0 -14319-3 0 9998 2 25306 51.9859 49.7337 0000529 359.5382 148.4106 11.65483537213013 GLOBALSTAR M006 1 25307U 98023B 25355.57230190 -.00000103 00000+0 -56452-3 0 9996 2 25307 51.9935 109.1246 0004013 96.0772 276.9566 11.58178461238548 GLOBALSTAR M015 1 25308U 98023C 25355.62536174 -.00000063 00000+0 24221-3 0 9997 2 25308 51.9794 216.0579 0013646 51.9647 336.1757 11.48862779215628 GLOBALSTAR M008 1 25309U 98023D 25355.36039303 -.00000062 00000+0 26914-3 0 9991 2 25309 51.9993 15.3866 0002666 204.8462 257.4948 12.36077257260997 GLOBALSTAR M023 1 25621U 99004A 25355.58423190 -.00000066 00000+0 21280-3 0 9998 2 25621 52.0079 202.8092 0009868 176.0505 212.9705 12.62510958239402 GLOBALSTAR M040 1 25622U 99004B 25355.02528236 -.00000062 00000+0 23402-3 0 9999 2 25622 51.9893 208.9408 0002010 80.0600 70.8458 12.62025512238845 GLOBALSTAR M036 1 25623U 99004C 25355.62402698 -.00000146 00000+0 -91677-3 0 9992 2 25623 51.9966 106.2683 0010864 53.4469 319.7176 11.86617416201235 GLOBALSTAR M038 1 25624U 99004D 25355.01022965 -.00000056 00000+0 32399-3 0 9996 2 25624 51.9970 253.5389 0002736 75.3325 297.9120 12.32537635225411 GLOBALSTAR M022 1 25649U 99012A 25355.12410990 -.00000125 00000+0 -46069-3 0 9990 2 25649 52.0021 142.7170 0003124 160.9971 10.8841 12.02508315198864 GLOBALSTAR M041 1 25650U 99012B 25355.31775846 -.00000092 00000+0 -88888-4 0 9996 2 25650 52.0041 29.3471 0000910 339.2852 20.7947 11.96681199200686 GLOBALSTAR M046 1 25651U 99012C 25355.64192473 -.00000153 00000+0 -70996-3 0 9990 2 25651 52.0059 84.6009 0001501 251.4187 256.8234 12.09415293206345 GLOBALSTAR M037 1 25652U 99012D 25355.36352595 -.00000095 00000+0 51003-4 0 9996 2 25652 52.0025 334.0294 0001661 243.4929 281.8179 12.62458512234919 GLOBALSTAR M045 1 25676U 99019A 25355.53858558 -.00000114 00000+0 -18288-3 0 9998 2 25676 51.9950 131.2726 0000922 124.0074 313.8548 12.27070627216397 GLOBALSTAR M019 1 25677U 99019B 25355.53820443 .00000074 00000+0 17064-2 0 9994 2 25677 51.9883 274.8272 0001793 6.5293 164.4417 12.13878508207896 GLOBALSTAR M044 1 25678U 99019C 25355.47659900 -.00000004 00000+0 11126-2 0 9993 2 25678 51.9962 249.7884 0006987 42.7136 128.4474 11.90262426193621 GLOBALSTAR M042 1 25679U 99019D 25355.46689409 -.00000033 00000+0 55526-3 0 9995 2 25679 52.0006 242.2556 0003029 346.0781 184.8072 12.22094692208156 GLOBALSTAR M025 1 25770U 99031A 25355.55527168 -.00000062 00000+0 15622-3 0 9999 2 25770 51.9829 85.2176 0002922 104.6931 268.6533 11.22559018502751 GLOBALSTAR M049 1 25771U 99031B 25355.39216070 -.00000118 00000+0 -18478-2 0 9993 2 25771 51.9854 129.7657 0002279 351.2989 8.7768 11.12123047138257 GLOBALSTAR M047 1 25772U 99031C 25355.53780395 -.00000077 00000+0 -20510-3 0 9991 2 25772 51.9825 108.5054 0016169 221.1015 138.8574 11.31931776492328 GLOBALSTAR M052 1 25773U 99031D 25355.06685323 .00000012 00000+0 26224-2 0 9999 2 25773 51.9847 236.5525 0003389 104.1054 39.5713 11.15062676499359 GLOBALSTAR M035 1 25851U 99037A 25355.48180282 -.00000019 00000+0 16798-2 0 9995 2 25851 51.9985 357.2787 0013614 285.6022 245.5011 11.04540409116957 GLOBALSTAR M032 1 25852U 99037B 25355.46438477 -.00000060 00000+0 22446-3 0 9990 2 25852 51.9913 169.5959 0013756 119.8209 240.3961 11.19075371155751 GLOBALSTAR M051 1 25853U 99037C 25355.24418312 -.00000107 00000+0 -86745-3 0 9998 2 25853 51.9819 309.6392 0000362 38.3408 321.7428 11.42202270153767 GLOBALSTAR M030 1 25854U 99037D 25355.51727960 -.00000075 00000+0 -57534-6 0 9992 2 25854 51.9891 103.1707 0003405 42.7648 317.3434 11.55111484171691 GLOBALSTAR M048 1 25872U 99041A 25354.02743116 -.00000036 00000+0 91397-3 0 9991 2 25872 51.9365 254.7944 0013316 141.8934 231.3456 11.33861106146065 GLOBALSTAR M026 1 25873U 99041B 25355.54776914 -.00000127 00000+0 -23031-2 0 9993 2 25873 52.0004 113.1118 0001786 184.7924 259.5692 11.06848847169237 GLOBALSTAR M043 1 25874U 99041C 25355.47186162 -.00000004 00000+0 19074-2 0 9991 2 25874 51.9432 6.4693 0013449 269.6032 239.1526 11.25698700143969 GLOBALSTAR M028 1 25875U 99041D 25355.25491597 -.00000097 00000+0 21439-4 0 9991 2 25875 51.9645 355.2563 0063477 117.6493 243.0830 12.50592939213580 GLOBALSTAR M024 1 25883U 99043A 25355.12465819 -.00000102 00000+0 -13157-2 0 9990 2 25883 52.0043 318.8253 0001854 37.3295 48.3299 11.10165978135620 GLOBALSTAR M027 1 25884U 99043B 25355.49460529 -.00000025 00000+0 14627-2 0 9990 2 25884 52.0236 41.2785 0021008 293.0858 66.7721 11.04372677161937 GLOBALSTAR M054 1 25885U 99043C 25355.54796110 -.00000091 00000+0 -51058-3 0 9999 2 25885 52.0113 137.0143 0005877 132.9018 306.5795 11.39224885140409 GLOBALSTAR M053 1 25886U 99043D 25355.53769729 -.00000079 00000+0 -30906-3 0 9990 2 25886 51.9982 94.5288 0003595 57.1390 316.0071 11.27668834140580 GLOBALSTAR M058 1 25907U 99049A 25355.20033045 -.00000110 00000+0 -34850-3 0 9997 2 25907 51.9970 329.7973 0001719 280.5382 79.5259 11.93206225563868 GLOBALSTAR M050 1 25908U 99049B 25355.31807747 -.00000038 00000+0 57113-3 0 9993 2 25908 52.0012 323.1778 0009491 44.3680 100.6460 12.07461691170793 GLOBALSTAR M033 1 25909U 99049C 25355.51275042 -.00000090 00000+0 11999-4 0 9994 2 25909 51.9876 181.5374 0013131 292.0751 67.8702 12.20294827558619 GLOBALSTAR M055 1 25910U 99049D 25355.24724839 -.00000080 00000+0 12001-3 0 9992 2 25910 51.9984 183.9222 0007486 150.9565 209.1704 12.29438452191293 GLOBALSTAR M057 1 25943U 99058A 25355.48155744 -.00000086 00000+0 58711-4 0 9992 2 25943 51.9950 176.6593 0003324 54.5362 305.5797 12.24832266189884 GLOBALSTAR M059 1 25944U 99058B 25355.49727751 -.00000075 00000+0 13865-3 0 9995 2 25944 52.0035 60.4333 0000343 119.4866 253.8941 11.99988116596538 GLOBALSTAR M056 1 25945U 99058C 25355.49737777 -.00000093 00000+0 -68047-4 0 9999 2 25945 51.9981 57.5914 0001260 176.8697 196.1921 12.04780978185205 GLOBALSTAR M031 1 25946U 99058D 25351.65166691 -.00000043 00000+0 48267-3 0 9990 2 25946 51.9983 309.4344 0000939 181.2254 351.7896 12.16044933186865 GLOBALSTAR M039 1 25961U 99062A 25355.58363066 -.00000087 00000+0 91635-4 0 9999 2 25961 51.9860 57.9359 0002701 55.0683 305.0437 12.62339652203881 GLOBALSTAR M034 1 25962U 99062B 25355.43645068 -.00000049 00000+0 50959-3 0 9990 2 25962 51.9862 244.6466 0015163 37.1314 133.8064 11.79454156160481 GLOBALSTAR M029 1 25963U 99062C 25355.63955208 -.00000033 00000+0 65332-3 0 9997 2 25963 51.9825 307.9247 0002553 113.0986 59.7053 11.99904730191623 GLOBALSTAR M061 1 25964U 99062D 25355.60631041 -.00000091 00000+0 -18330-3 0 9992 2 25964 51.9807 70.7252 0005237 317.6213 191.0792 11.76777814143243 GLOBALSTAR M063 1 26081U 00008A 25354.75076091 -.00000102 00000+0 -29081-3 0 9996 2 26081 51.9986 340.2269 0004659 314.8886 216.1922 11.86178152179713 GLOBALSTAR M062 1 26082U 00008B 25355.51627082 -.00000122 00000+0 -16831-3 0 9995 2 26082 51.9853 264.8986 0007103 144.8099 25.7827 12.43478411519922 GLOBALSTAR M060 1 26083U 00008C 25355.04495361 .00000013 00000+0 10352-2 0 9995 2 26083 52.0016 252.7304 0003518 127.6388 246.1259 12.17671659175131 GLOBALSTAR M064 1 26084U 00008D 25355.60093889 -.00000060 00000+0 32436-3 0 9998 2 26084 52.0042 74.6059 0001811 81.2428 278.8610 11.88539391189381 GLOBALSTAR M065 1 31571U 07020A 25351.59775860 -.00000114 00000+0 -59491-4 0 9998 2 31571 51.9915 28.0181 0009699 356.5964 173.4742 12.62015524856566 GLOBALSTAR M069 1 31573U 07020C 25355.08291204 -.00000054 00000+0 35627-3 0 9999 2 31573 52.0048 36.2291 0002185 140.6499 239.3423 12.23465100857002 GLOBALSTAR M072 1 31574U 07020D 25355.64080480 -.00000056 00000+0 38823-3 0 9997 2 31574 51.9903 212.9236 0001353 24.1289 9.6627 11.91654682853810 GLOBALSTAR M071 1 31576U 07020F 25355.62413544 -.00000012 00000+0 78152-3 0 9999 2 31576 52.0074 65.5991 0001477 129.6291 18.2616 12.18262851517784 GLOBALSTAR M067 1 32263U 07048A 25355.55059498 -.00000070 00000+0 20451-3 0 9992 2 32263 51.9700 207.6859 0002005 51.5395 324.0051 12.40683088832741 GLOBALSTAR M070 1 32264U 07048B 25355.50051532 -.00000071 00000+0 18435-3 0 9999 2 32264 51.9758 277.8666 0000539 62.9586 109.3384 12.62327610837320 GLOBALSTAR M066 1 32265U 07048C 25355.56732248 -.00000087 00000+0 67311-4 0 9991 2 32265 51.9568 207.8084 0005674 39.9099 354.7456 12.30383545838360 GLOBALSTAR M068 1 32266U 07048D 25355.58430966 -.00000085 00000+0 10472-3 0 9999 2 32266 51.9888 91.0001 0001532 160.5297 302.4390 12.62835632841239 GLOBALSTAR M079 1 37188U 10054A 25355.55048321 -.00000078 00000+0 14371-3 0 9999 2 37188 52.0048 289.4235 0000742 32.0844 139.1989 12.62261664700110 GLOBALSTAR M074 1 37189U 10054B 25355.25583273 -.00000080 00000+0 13359-3 0 9995 2 37189 52.0027 289.6140 0000818 58.2795 93.0418 12.62264226700688 GLOBALSTAR M076 1 37190U 10054C 25355.28542971 -.00000082 00000+0 12110-3 0 9996 2 37190 52.0041 289.7131 0000909 48.5756 116.2728 12.62268281700404 GLOBALSTAR M077 1 37191U 10054D 25355.47571109 -.00000088 00000+0 -18208-3 0 9994 2 37191 51.9979 270.6998 0001295 37.8339 133.0637 11.68176442700374 GLOBALSTAR M075 1 37192U 10054E 25351.73634080 -.00000091 00000+0 72174-4 0 9994 2 37192 51.9972 342.6695 0000324 70.0279 101.0008 12.62270606699024 GLOBALSTAR M073 1 37193U 10054F 25355.45855714 -.00000065 00000+0 21590-3 0 9993 2 37193 52.0053 245.3027 0001022 55.4380 115.9233 12.62268169701480 GLOBALSTAR M083 1 37739U 11033A 25355.59966905 -.00000094 00000+0 55366-4 0 9998 2 37739 51.9832 193.3434 0001014 74.9540 319.9129 12.62265932670523 GLOBALSTAR M088 1 37740U 11033B 25355.58919047 -.00000115 00000+0 -62125-4 0 9990 2 37740 52.0215 99.3710 0000852 122.5551 344.0146 12.62270966666060 GLOBALSTAR M091 1 37741U 11033C 25355.50289267 -.00000098 00000+0 34419-4 0 9991 2 37741 52.0009 62.8633 0000495 139.2271 234.1979 12.62268179666840 GLOBALSTAR M085 1 37742U 11033D 25355.33098024 -.00000098 00000+0 31614-4 0 9996 2 37742 52.0144 14.5229 0000074 153.0069 219.5247 12.62267394667336 GLOBALSTAR M081 1 37743U 11033E 25351.59018587 -.00000087 00000+0 92331-4 0 9998 2 37743 51.9980 28.5496 0000222 94.7932 71.3857 12.62270971667009 GLOBALSTAR M089 1 37744U 11033F 25355.35338291 -.00000090 00000+0 78679-4 0 9997 2 37744 51.9953 331.2854 0000661 70.1908 105.2423 12.62262556668322 GLOBALSTAR M084 1 38040U 11080A 25355.28686485 -.00000094 00000+0 55647-4 0 9996 2 38040 51.9981 198.8759 0001367 82.5698 89.4899 12.62266774646299 GLOBALSTAR M080 1 38041U 11080B 25355.54107024 -.00000086 00000+0 10090-3 0 9996 2 38041 52.0031 199.7586 0000721 102.2055 275.4833 12.62265124646457 GLOBALSTAR M082 1 38042U 11080C 25355.48110470 -.00000120 00000+0 -89646-4 0 9993 2 38042 52.0050 155.4221 0000802 112.4190 282.3141 12.62266390647150 GLOBALSTAR M092 1 38043U 11080D 25355.48472434 -.00000069 00000+0 19297-3 0 9990 2 38043 52.0076 245.8000 0000915 69.3072 101.5228 12.62268594645606 GLOBALSTAR M090 1 38044U 11080E 25355.50953837 -.00000126 00000+0 -12452-3 0 9996 2 38044 52.0098 149.2344 0000902 95.1722 307.7188 12.62265512647271 GLOBALSTAR M086 1 38045U 11080F 25355.62113521 -.00000113 00000+0 -50586-4 0 9995 2 38045 51.9877 149.1139 0001489 52.2804 28.1557 12.62281379647231 GLOBALSTAR M097 1 39072U 13005A 25355.47329522 -.00000119 00000+0 -85118-4 0 9993 2 39072 52.0062 64.3116 0000435 109.7176 250.3738 12.62267592594460 GLOBALSTAR M093 1 39073U 13005B 25355.60555598 -.00000091 00000+0 70263-4 0 9996 2 39073 52.0118 57.1895 0000195 93.3268 266.7621 12.62271138594430 GLOBALSTAR M094 1 39074U 13005C 25355.28870193 -.00000109 00000+0 -29645-4 0 9991 2 39074 51.9980 332.4486 0000391 21.2374 338.8509 12.62265366596004 GLOBALSTAR M096 1 39075U 13005D 25355.38092105 -.00000095 00000+0 47129-4 0 9992 2 39075 52.0090 20.8267 0000055 95.5406 264.5467 12.62269472594931 GLOBALSTAR M078 1 39076U 13005E 25355.51327709 -.00000114 00000+0 -58979-4 0 9997 2 39076 51.9874 104.6810 0000789 184.7266 175.3594 12.62272451593574 GLOBALSTAR M095 1 39077U 13005F 25355.61873658 -.00000112 00000+0 -46380-4 0 9999 2 39077 52.0076 101.7111 0000438 139.5748 220.5151 12.62267196593445 GLOBALSTAR M087 1 52888U 22064A 25354.83995854 -.00000070 00000+0 18675-3 0 9992 2 52888 51.9988 245.4235 0000777 54.3781 305.7158 12.62261635168612